Regional Weather Roundup
Issued by NWS Upton, NY

Home | Current Version | Previous Version | Text Only | Print | Product List | Glossary On
Versions: 1 2 3 4 5 6 7 8 9 10 11 12 13 14 15 16 17 18 19 20 21 22 23 24 25 26 27 28 29 30 31 32 33 34 35 36 37 38 39 40 41 42 43 44 45 46 47 48 49 50
000
ASUS41 KOKX 021518
RWROKX

REGIONAL WEATHER ROUNDUP
NATIONAL WEATHER SERVICE NEW YORK NY
1100 AM EDT TUE JUN 02 2015

NOTE: "FAIR" INDICATES FEW OR NO CLOUDS BELOW 12,000 FEET WITH NO
SIGNIFICANT WEATHER AND/OR OBSTRUCTIONS TO VISIBILITY.

NYZ071-072-176-178-NJZ106-104-021600-
NEW YORK CITY METRO AREA


CITY           SKY/WX    TMP DP  RH WIND       PRES   REMARKS
CENTRAL PARK   CLOUDY    53  50  89 NE6       30.17S
LAGUARDIA APRT CLOUDY    52  49  89 NE10      30.15R
KENNEDY INTL   LGT RAIN  53  49  86 NE10      30.15R FOG
NEWARK/LIBERTY LGT RAIN  53  50  89 NE9       30.15R
BRNX BOT. GARD   N/A     52  48  87 E3        30.17S
TETERBORO      CLOUDY    53  48  83 N7        30.14R FOG
$$

NYZ177-179-078>081-021600-
LONG ISLAND NEW YORK

CITY           SKY/WX    TMP DP  RH WIND       PRES   REMARKS
FARMINGDALE    CLOUDY    52  49  89 N9        30.14S
ISLIP          DRIZZLE   51  48  89 N13       30.12S FOG
SHIRLEY        LGT RAIN  51  49  92 VRB6      30.14S FOG
WESTHAMPTON    LGT RAIN  51  50  96 NE13      30.15S FOG
MONTAUK POINT    N/A     52  47  83 N9        30.15R
$$

NYZ052-065-067-021600-
HUDSON VALLEY

CITY           SKY/WX    TMP DP  RH WIND       PRES   REMARKS
WHITE PLAINS   CLOUDY    52  48  86 N7        30.14R
NEWBURGH       CLOUDY    52  48  87 NE9       30.17F
MONTGOMERY     LGT RAIN  53  49  86 NE7       30.16S
POUGHKEEPSIE   CLOUDY    53  47  79 NE8       30.16F
ALBANY         CLOUDY    55  45  68 NW3       30.18S
$$

NJZ001-105-106-008-010-013-015-019>022-104-021600-
NEW JERSEY

CITY           SKY/WX    TMP DP  RH WIND       PRES   REMARKS
NEWARK/LIBERTY LGT RAIN  53  50  89 NE9       30.15R
TETERBORO      CLOUDY    53  48  83 N7        30.14R FOG
CALDWELL       CLOUDY    52  48  86 MISG      30.15S
MORRISTOWN     DRIZZLE   59  55  88 NE6       30.16R
SOMERVILLE     LGT RAIN  54  50  86 VRB3      30.13S FOG
SUSSEX         LGT RAIN  51  47  86 NE6       30.17S FOG
ANDOVER          N/A     51  48  89 VRB3      30.16R
TRENTON        LGT RAIN  52  50  93 NE8       30.13S FOG
MILLVILLE      CLOUDY    56  54  93 NE10      30.09S
ATLANTIC CITY  CLOUDY    56  54  93 NE12      30.10S
WRIGHTSTOWN    CLOUDY    52  50  90 N13       30.11R
TOMS RIVER     CLOUDY   N/A N/A N/A NE12      30.13R
BELMAR         CLOUDY    52  45  76 N13       30.13S
$$

PAZ047>061-062-071-021600-
EASTERN PENNSYLVANIA

CITY           SKY/WX    TMP DP  RH WIND       PRES   REMARKS
PHILADELPHIA   CLOUDY    55  51  86 NE12      30.12S
ALLENTOWN      LGT RAIN  54  50  87 NE5       30.15S FOG
SCRANTON       LGT RAIN  55  50  83 NE3       30.14S
$$

CTZ002-004>006-009-010-012-RIZ004-006-007-MAZ004-011-015-021600-
SOUTHERN NEW ENGLAND
 IN CT

CITY           SKY/WX    TMP DP  RH WIND       PRES   REMARKS
BRADLEY INTL   LGT RAIN  51  47  86 N8        30.18R
HARTFORD       CLOUDY    51  46  83 N12       30.17S
DANBURY        LGT RAIN  50  44  80 N13       30.17S
WTRBRY/OXFORD  CLOUDY    48  41  76 NE12      30.17S
BRIDGEPORT     LGT RAIN  52  48  86 NE10      30.15S
MERIDEN        LGT RAIN  50  46  86 N9        30.17R
NEW HAVEN      CLOUDY    51  48  89 N12       30.15S
CHESTER        LGT RAIN  48  46  93 N9        30.15S
GROTON         LGT RAIN  50  48  93 N9        30.13S FOG
WILLIMANTIC    LGT RAIN  50  46  86 NE9       30.16R FOG

 IN RI

CITY           SKY/WX    TMP DP  RH WIND       PRES   REMARKS
PROVIDENCE     LGT RAIN  49  46  90 N14G21    30.16R FOG
BLOCK ISLAND   CLOUDY    50  45  81 NE16      30.13R
WESTERLY       CLOUDY    50  48  93 N8        30.14R

 IN MA

CITY           SKY/WX    TMP DP  RH WIND       PRES   REMARKS
BOSTON         CLOUDY    47  46  97 NE16      30.19R
WORCESTER      LGT RAIN  46  43  89 NE7       30.17R
WESTFIELD      LGT RAIN  50  46  86 NE7       30.18S
PROVINCETOWN   CLOUDY    52  45  76 NE14      30.15S
NANTUCKET      CLOUDY    57  51  80 N20       30.09S
$$

ANZ330-335-338-340-345-350-353-355-021600-
COASTAL MARINE OBSERVATIONS


STATION/POSITION TIME  SKY/WX   TEMP    WIND        PRES    VSBY  WAVE
                                AIR SEA DIR/SP/G                  HT/PER
                 (UTC)          (F)     (DEG/KT/KT) (MB)    (MI)  (FT/S)
NY HARB ENTRANCE 1450            52 55   30/ 16/ 17 1019.8          4/ 6
4S FIRE IS       1403               56                N/A           4/ 6
20S FIRE ISLAND  1450            51 58   30/ 17/ 19 1019.5          5/ 6
GREAT SOUTH BAY  1400            51 65   40/ 10/ 17   N/A
23SW MTP         1450            51 56   20/ 19/ 23 1019.4          5/ 5
HUDSON CANYON    NOT AVBL
KINGS POINT      1400            51 56   40/  5/  9 1019.9
CENTRAL LI SOUND 1415            50 56   30/ 12/ 16   N/A
EASTERN LI SOUND 1400            50      20/ 12/ 16   N/A
ROBBINS REEF     1400            51      50/ 11/ 12 1019.3
$$


>>>>>>>>>>>>>>>>>>>>>>>>>>>> KEY <<<<<<<<<<<<<<<<<<<<<<<<<<<
>                                                          <
>     SKY/WX - SKY CONDITION/PRESENT WEATHER               <
>     TMP    - TEMPERATURE IN FAHRENHEIT                   <
>     DP     - DEWPOINT IN FAHRENHEIT                      <
>     RH     - RELATIVE HUMIDITY IN PERCENT                <
>     WIND   - DIRECTION AND SPEED IN MPH                  <
>     PRES   - MEAN SEA LEVEL PRESSURE IN INCHES OF HG     <
>     WCI    - WIND CHILL INDEX                            <
>     VSB    - VISIBILITY IN MILES                         <
>     HX     - HEAT INDEX                                  <
>     TC     - TEMPERATURE IN CELSIUS                      <
>     VRB    - VARIABLE WIND DIRECTION                     <
>                                                          <
>>>>>>>>>>>>>>>>>>>>>>>>>>>> KEY <<<<<<<<<<<<<<<<<<<<<<<<<<<




USA.gov is the U.S. government's official web portal to all federal, state and local government web resources and services.